Radiation Dose at Monitoring Post of Fukushima Daini Nuclear Power Station
Date,Time,MP-1(microSv/h),MP-2(microSv/h),MP-3(microSv/h),MP-4(microSv/h),MP-5(microSv/h),MP-6(microSv/h),MP-7(microSv/h),Wind Direction,Wind Velocity(m/s),Rain
2020/06/28,00:00,0.171,0.155,0.254,0.240,0.242,0.135,0.083,south,3.8,No
2020/06/28,00:10,0.170,0.155,0.251,0.242,0.246,0.134,0.082,south,3.3,No
2020/06/28,00:20,0.171,0.154,0.254,0.242,0.246,0.136,0.083,south,2.4,No
2020/06/28,00:30,0.171,0.157,0.254,0.242,0.243,0.135,0.083,south,2.2,No
2020/06/28,00:40,0.169,0.155,0.252,0.243,0.246,0.135,0.084,south-southwest,2.6,No
2020/06/28,00:50,0.170,0.156,0.254,0.240,0.245,0.135,0.083,south,3.7,No
2020/06/28,01:00,0.171,0.156,0.254,0.243,0.243,0.135,0.083,south,3.5,No
2020/06/28,01:10,0.171,0.155,0.252,0.242,0.247,0.136,0.083,south,4.5,No
2020/06/28,01:20,0.172,0.157,0.254,0.241,0.245,0.135,0.083,south,5.2,No
2020/06/28,01:30,0.170,0.155,0.251,0.244,0.243,0.134,0.083,south,6.0,No
2020/06/28,01:40,0.170,0.157,0.253,0.241,0.246,0.135,0.083,south,3.4,No
2020/06/28,01:50,0.172,0.157,0.253,0.242,0.243,0.135,0.083,south,3.7,No
2020/06/28,02:00,0.170,0.155,0.251,0.243,0.242,0.135,0.083,south,3.9,No
2020/06/28,02:10,0.172,0.155,0.254,0.241,0.245,0.134,0.083,south,3.2,No
2020/06/28,02:20,0.171,0.155,0.252,0.243,0.243,0.135,0.083,south,4.7,No
2020/06/28,02:30,0.169,0.155,0.255,0.243,0.244,0.134,0.082,south-southwest,3.8,No
2020/06/28,02:40,0.170,0.156,0.254,0.241,0.244,0.135,0.083,south-southwest,5.5,No
2020/06/28,02:50,0.170,0.154,0.252,0.243,0.243,0.134,0.083,south-southwest,5.3,No
2020/06/28,03:00,0.169,0.155,0.254,0.240,0.243,0.135,0.082,south-southwest,4.8,Yes
2020/06/28,03:10,0.172,0.155,0.252,0.241,0.245,0.134,0.082,south-southwest,4.9,Yes
2020/06/28,03:20,0.170,0.154,0.252,0.242,0.243,0.134,0.083,south-southwest,5.1,Yes
2020/06/28,03:30,0.170,0.157,0.253,0.241,0.244,0.135,0.083,south-southwest,5.0,Yes
2020/06/28,03:40,0.171,0.155,0.252,0.242,0.246,0.135,0.082,south-southwest,4.6,No
2020/06/28,03:50,0.170,0.156,0.254,0.241,0.243,0.135,0.082,south-southwest,3.8,No
2020/06/28,04:00,0.172,0.155,0.253,0.241,0.245,0.136,0.083,south-southwest,3.3,Yes
2020/06/28,04:10,0.172,0.156,0.253,0.243,0.246,0.134,0.082,southwest,3.5,No
2020/06/28,04:20,0.170,0.156,0.254,0.241,0.243,0.135,0.083,south-southwest,3.5,Yes
2020/06/28,04:30,0.172,0.154,0.252,0.243,0.245,0.135,0.084,south-southwest,3.4,No
2020/06/28,04:40,0.170,0.156,0.253,0.243,0.246,0.134,0.083,south-southwest,3.1,No
2020/06/28,04:50,0.171,0.155,0.253,0.241,0.244,0.136,0.083,south,3.2,No
2020/06/28,05:00,0.172,0.155,0.252,0.242,0.245,0.136,0.083,south-southwest,4.5,No
2020/06/28,05:10,0.170,0.156,0.254,0.241,0.245,0.134,0.083,south-southwest,3.7,No
2020/06/28,05:20,0.172,0.157,0.254,0.242,0.242,0.135,0.083,south-southwest,3.0,Yes
2020/06/28,05:30,0.174,0.159,0.254,0.245,0.247,0.137,0.083,west-southwest,2.8,Yes
2020/06/28,05:40,0.174,0.161,0.256,0.243,0.249,0.139,0.089,west,3.6,Yes
2020/06/28,05:50,0.177,0.162,0.254,0.246,0.247,0.142,0.091,north,1.8,Yes
2020/06/28,06:00,0.177,0.163,0.257,0.244,0.251,0.143,0.091,west-southwest,3.9,Yes
2020/06/28,06:10,0.176,0.162,0.254,0.245,0.249,0.143,0.093,-,CALM,Yes
2020/06/28,06:20,0.178,0.165,0.254,0.245,0.250,0.145,0.094,west-northwest,1.1,Yes
2020/06/28,06:30,0.176,0.163,0.255,0.244,0.252,0.144,0.093,west-northwest,2.1,Yes
2020/06/28,06:40,0.177,0.164,0.252,0.245,0.248,0.143,0.093,-,CALM,Yes
2020/06/28,06:50,0.175,0.162,0.256,0.242,0.251,0.142,0.091,-,CALM,Yes
2020/06/28,07:00,0.174,0.161,0.253,0.243,0.248,0.142,0.092,-,CALM,Yes
2020/06/28,07:10,0.176,0.162,0.253,0.243,0.248,0.143,0.092,-,CALM,Yes
2020/06/28,07:20,0.175,0.161,0.254,0.242,0.252,0.142,0.093,south,4.3,Yes
2020/06/28,07:30,0.176,0.164,0.252,0.244,0.249,0.142,0.093,west-northwest,1.5,Yes
2020/06/28,07:40,0.176,0.164,0.256,0.241,0.251,0.142,0.094,north-northeast,5.1,Yes
2020/06/28,07:50,0.175,0.163,0.253,0.244,0.252,0.144,0.096,south,0.9,Yes
2020/06/28,08:00,0.178,0.167,0.256,0.245,0.252,0.144,0.096,southwest,3.3,Yes
2020/06/28,08:10,0.177,0.165,0.257,0.245,0.254,0.145,0.095,south,1.9,Yes
2020/06/28,08:20,0.177,0.167,0.255,0.247,0.252,0.144,0.096,south,2.1,Yes
2020/06/28,08:30,0.176,0.165,0.258,0.244,0.250,0.143,0.094,south,1.9,Yes
2020/06/28,08:40,0.173,0.163,0.255,0.244,0.252,0.142,0.093,south,2.4,Yes
2020/06/28,08:50,0.176,0.163,0.254,0.244,0.249,0.139,0.093,south-southwest,1.9,Yes
2020/06/28,09:00,0.174,0.160,0.254,0.241,0.247,0.139,0.091,south-southwest,1.5,Yes
2020/06/28,09:10,0.171,0.161,0.251,0.242,0.251,0.139,0.091,south,1.5,Yes
2020/06/28,09:20,0.173,0.160,0.250,0.242,0.247,0.138,0.089,south,2.6,Yes
2020/06/28,09:30,0.171,0.159,0.253,0.239,0.245,0.138,0.089,south-southeast,2.9,Yes
2020/06/28,09:40,0.170,0.160,0.250,0.241,0.248,0.138,0.089,south,2.4,Yes
2020/06/28,09:50,0.171,0.158,0.250,0.240,0.246,0.136,0.088,south,2.4,Yes
2020/06/28,10:00,0.170,0.158,0.250,0.238,0.245,0.137,0.088,south-southwest,2.6,Yes
2020/06/28,10:10,0.169,0.158,0.248,0.240,0.247,0.136,0.087,south-southwest,3.7,Yes
2020/06/28,10:20,0.170,0.157,0.250,0.238,0.243,0.136,0.087,south-southwest,4.6,Yes
2020/06/28,10:30,0.168,0.157,0.249,0.238,0.244,0.136,0.086,south-southwest,5.4,Yes
2020/06/28,10:40,0.171,0.157,0.247,0.240,0.245,0.134,0.087,south-southwest,4.5,Yes
2020/06/28,10:50,0.169,0.157,0.249,0.236,0.244,0.136,0.088,south-southwest,4.0,Yes
2020/06/28,11:00,0.170,0.158,0.247,0.239,0.247,0.136,0.087,south,3.6,Yes
2020/06/28,11:10,0.170,0.157,0.248,0.239,0.246,0.135,0.088,-,CALM,Yes
2020/06/28,11:20,0.170,0.157,0.250,0.238,0.243,0.137,0.088,south-southwest,1.0,Yes
2020/06/28,11:30,0.171,0.159,0.249,0.241,0.249,0.138,0.088,east-southeast,1.9,Yes
2020/06/28,11:40,0.172,0.159,0.252,0.240,0.247,0.138,0.090,south-southwest,3.4,Yes
2020/06/28,11:50,0.170,0.161,0.251,0.242,0.245,0.140,0.090,-,CALM,Yes
2020/06/28,12:00,0.173,0.162,0.251,0.242,0.251,0.140,0.092,-,CALM,Yes
2020/06/28,12:10,0.173,0.162,0.253,0.241,0.249,0.140,0.092,south,3.1,Yes
2020/06/28,12:20,0.173,0.164,0.251,0.244,0.250,0.141,0.094,south-southeast,1.3,Yes
2020/06/28,12:30,0.174,0.162,0.253,0.242,0.250,0.141,0.093,south-southeast,1.4,Yes
2020/06/28,12:40,0.172,0.161,0.252,0.241,0.248,0.139,0.091,south-southeast,0.9,No
2020/06/28,12:50,0.171,0.160,0.249,0.243,0.247,0.138,0.090,south,1.3,No
2020/06/28,13:00,0.171,0.158,0.251,0.239,0.247,0.136,0.089,southeast,1.7,No
2020/06/28,13:10,0.169,0.158,0.249,0.236,0.243,0.135,0.086,southwest,2.0,No
2020/06/28,13:20,0.167,0.157,0.246,0.239,0.241,0.134,0.086,west-southwest,2.5,No
2020/06/28,13:30,0.168,0.155,0.247,0.236,0.243,0.134,0.085,southwest,0.9,No
2020/06/28,13:40,0.168,0.153,0.248,0.236,0.244,0.132,0.083,south-southwest,0.9,No
2020/06/28,13:50,0.166,0.155,0.245,0.237,0.242,0.131,0.082,south-southeast,0.7,No
2020/06/28,14:00,0.166,0.154,0.243,0.237,0.238,0.132,0.083,south-southeast,1.3,No
2020/06/28,14:10,0.166,0.153,0.244,0.235,0.238,0.131,0.082,east-southeast,1.9,No
2020/06/28,14:20,0.165,0.152,0.247,0.234,0.238,0.130,0.082,east-southeast,2.0,No
2020/06/28,14:30,0.165,0.151,0.246,0.232,0.239,0.129,0.081,southeast,1.2,No
2020/06/28,14:40,0.164,0.151,0.244,0.233,0.242,0.130,0.081,-,CALM,No
2020/06/28,14:50,0.163,0.151,0.242,0.236,0.243,0.130,0.081,-,CALM,No
2020/06/28,15:00,0.163,0.150,0.242,0.236,0.241,0.131,0.082,-,CALM,No
2020/06/28,15:10,0.164,0.152,0.243,0.234,0.239,0.129,0.079,-,CALM,No
2020/06/28,15:20,0.164,0.151,0.243,0.235,0.239,0.131,0.080,-,CALM,No
2020/06/28,15:30,0.164,0.151,0.243,0.234,0.239,0.131,0.079,-,CALM,No
2020/06/28,15:40,0.165,0.152,0.244,0.233,0.240,0.131,0.081,-,CALM,No
2020/06/28,15:50,0.167,0.152,0.247,0.234,0.239,0.130,0.082,-,CALM,No
2020/06/28,16:00,0.167,0.153,0.247,0.238,0.238,0.130,0.081,-,CALM,No
2020/06/28,16:10,0.166,0.152,0.246,0.236,0.238,0.130,0.080,-,CALM,No
2020/06/28,16:20,0.164,0.153,0.244,0.235,0.238,0.130,0.081,-,CALM,No
2020/06/28,16:30,0.164,0.153,0.248,0.235,0.240,0.132,0.080,south,0.7,No
2020/06/28,16:40,0.164,0.153,0.247,0.238,0.239,0.131,0.081,south,0.8,No
2020/06/28,16:50,0.164,0.153,0.244,0.236,0.239,0.130,0.081,south,1.5,No
2020/06/28,17:00,0.168,0.154,0.246,0.234,0.240,0.130,0.081,south,1.3,No
2020/06/28,17:10,0.167,0.152,0.248,0.236,0.239,0.131,0.080,south,0.8,No
2020/06/28,17:20,0.165,0.153,0.245,0.237,0.239,0.132,0.081,south-southwest,0.8,No
2020/06/28,17:30,0.165,0.154,0.246,0.234,0.240,0.131,0.081,south,0.8,No
2020/06/28,17:40,0.168,0.153,0.247,0.237,0.244,0.130,0.080,south,1.1,No
2020/06/28,17:50,0.167,0.153,0.245,0.236,0.243,0.132,0.081,south,1.4,No
2020/06/28,18:00,0.166,0.153,0.248,0.236,0.240,0.131,0.080,south,1.4,No
2020/06/28,18:10,0.169,0.153,0.247,0.239,0.245,0.131,0.081,west,0.8,Yes
2020/06/28,18:20,0.166,0.154,0.245,0.235,0.243,0.132,0.081,southwest,1.0,No
2020/06/28,18:30,0.165,0.152,0.248,0.236,0.240,0.131,0.081,south-southwest,1.9,No
2020/06/28,18:40,0.168,0.152,0.247,0.237,0.242,0.131,0.081,southwest,1.7,No
2020/06/28,18:50,0.166,0.154,0.246,0.235,0.242,0.132,0.081,southwest,2.0,No
2020/06/28,19:00,0.167,0.152,0.247,0.238,0.241,0.132,0.081,west-southwest,1.6,No
2020/06/28,19:10,0.168,0.153,0.246,0.236,0.243,0.131,0.081,north-northeast,1.4,No
2020/06/28,19:20,0.165,0.153,0.248,0.236,0.242,0.132,0.081,northeast,1.2,No
2020/06/28,19:30,0.167,0.152,0.247,0.238,0.239,0.131,0.081,-,CALM,No
2020/06/28,19:40,0.166,0.153,0.247,0.237,0.243,0.132,0.081,west-northwest,1.2,No
2020/06/28,19:50,0.167,0.153,0.249,0.238,0.241,0.132,0.081,west-northwest,1.1,No
2020/06/28,20:00,0.168,0.155,0.246,0.237,0.242,0.131,0.081,northwest,0.7,No
2020/06/28,20:10,0.166,0.153,0.249,0.237,0.244,0.131,0.081,west-northwest,1.1,No
2020/06/28,20:20,0.167,0.153,0.247,0.239,0.240,0.131,0.081,west-northwest,1.3,No
2020/06/28,20:30,0.167,0.153,0.248,0.236,0.243,0.132,0.081,west-northwest,2.7,No
2020/06/28,20:40,0.167,0.153,0.247,0.238,0.241,0.131,0.082,west-northwest,3.9,No
2020/06/28,20:50,0.169,0.153,0.247,0.236,0.242,0.132,0.081,west-northwest,3.9,No
2020/06/28,21:00,0.166,0.153,0.247,0.237,0.243,0.132,0.081,west-northwest,3.6,No
2020/06/28,21:10,0.168,0.154,0.245,0.237,0.241,0.131,0.081,west-northwest,3.2,No
2020/06/28,21:20,0.166,0.153,0.248,0.237,0.242,0.132,0.081,west-northwest,4.4,No
2020/06/28,21:30,0.167,0.154,0.246,0.236,0.240,0.132,0.081,west-northwest,5.0,No
2020/06/28,21:40,0.168,0.153,0.248,0.236,0.243,0.131,0.081,northwest,3.2,No
2020/06/28,21:50,0.166,0.154,0.245,0.238,0.241,0.132,0.081,northwest,3.5,No
2020/06/28,22:00,0.169,0.153,0.249,0.236,0.241,0.131,0.081,northwest,3.7,No
2020/06/28,22:10,0.167,0.154,0.246,0.238,0.243,0.132,0.081,north-northwest,3.3,No
2020/06/28,22:20,0.168,0.153,0.248,0.236,0.240,0.132,0.081,north,3.5,No
2020/06/28,22:30,0.167,0.154,0.248,0.239,0.243,0.132,0.081,north-northwest,3.5,No
2020/06/28,22:40,0.167,0.153,0.246,0.237,0.241,0.132,0.081,north-northwest,4.4,No
2020/06/28,22:50,0.168,0.153,0.250,0.238,0.244,0.132,0.080,north,4.8,No
2020/06/28,23:00,0.167,0.154,0.245,0.237,0.243,0.132,0.081,north-northwest,4.1,No
2020/06/28,23:10,0.168,0.154,0.247,0.237,0.241,0.131,0.081,north-northwest,3.6,No
2020/06/28,23:20,0.167,0.154,0.247,0.237,0.243,0.132,0.082,north-northwest,3.9,No
2020/06/28,23:30,0.168,0.154,0.248,0.237,0.242,0.132,0.081,north-northwest,3.1,No
2020/06/28,23:40,0.167,0.153,0.247,0.237,0.243,0.132,0.081,north-northwest,2.9,No
2020/06/28,23:50,0.167,0.154,0.249,0.237,0.241,0.132,0.081,north-northwest,2.2,No
